Retour au catalogue

COSMOS 374 DEB

ActifUNKNOWN
NORAD 5188·DEBRIS·🇷🇺 Russia

Lancé Oct 23, 1970 depuis Baikonur Cosmodrome

Loading…

Prochains Passages (prochaines 24 heures)

TLE

FraisSource: Space-Track

Époque: Sep 14, 2026, 12:18 UTC

1 05188U 70089AZ  26257.51256870  .00000223  00000-0  36209-3 0  9992
2 05188  63.9991  69.8372 0879100 185.1729 173.9698 12.61265224883456

Suivez COSMOS 374 DEB en temps réel avec AllMySat

Download on the App Store